User: anonymous
Location: Unspecified
(0.0000°N, 0.0000°E)
Time: 15:56:38
(UTC+02:00)
Language:

PSLV R/B - Orbit

View from above orbital plane
View from above orbital plane
View from above satellite
View from above satellite

Ground track
Ground track

The orbit data is extracted from the following two-line orbital elements,

1 29713U 07001E   14112.16750586  .00003449  00000-0  43452-3 0  2968
2 29713 097.6445 109.0623 0024883 278.2586 081.5806 14.82412316393198
Epoch (UTC): 22 April 2014 04:01:12
Eccentricity: 0.0024883
inclination: 97.6445°
perigee height: 604 km
apogee height: 639 km
right ascension of ascending node: 109.0623°
argument of perigee: 278.2586°
revolutions per day: 14.82412316
mean anomaly at epoch: 81.5806°
orbit number at epoch: 39319

The dashed part of the orbit path shows where the satellite is in the earth's shadow,  

DLR